TimeGMT,TemperatureF,Dew PointF,Humidity,Sea Level PressureIn,VisibilityMPH,Wind Direction,Wind SpeedMPH,Gust SpeedMPH,PrecipitationIn,Events,Conditions,WindDirDegrees,DateUTC
12:00 AM,45,41,81,30.06,19,SSE,17.9,,,,Mostly Cloudy,150,2013-02-17 00:00:00
12:00 AM,44.6,41.0,87,30.04,6.2,SSE,17.3,-,N/A,,Mostly Cloudy,150,2013-02-17 00:00:00
12:30 AM,44.6,41.0,87,30.04,6.2,SSE,17.3,-,N/A,,Mostly Cloudy,150,2013-02-17 00:30:00
1:00 AM,44.6,41.0,87,30.04,6.2,SE,18.4,-,N/A,,Mostly Cloudy,140,2013-02-17 01:00:00
1:30 AM,44.6,41.0,87,30.01,6.2,SSE,16.1,-,N/A,,Mostly Cloudy,150,2013-02-17 01:30:00
2:00 AM,44.6,41.0,87,30.01,6.2,SE,17.3,-,N/A,,Mostly Cloudy,140,2013-02-17 02:00:00
2:30 AM,44.6,41.0,87,30.01,6.2,SE,17.3,-,N/A,,Mostly Cloudy,130,2013-02-17 02:30:00
3:00 AM,44.6,41.0,87,30.01,6.2,SE,17.3,-,N/A,,Mostly Cloudy,130,2013-02-17 03:00:00
3:30 AM,44.6,41.0,87,29.98,6.2,SE,17.3,-,N/A,,Mostly Cloudy,140,2013-02-17 03:30:00
4:00 AM,44.6,41.0,87,30.01,6.2,ESE,12.7,-,N/A,,Mostly Cloudy,120,2013-02-17 04:00:00
4:30 AM,44.6,41.0,87,29.98,6.2,ESE,10.4,-,N/A,,Mostly Cloudy,120,2013-02-17 04:30:00
5:00 AM,44.6,41.0,87,29.98,6.2,SE,16.1,-,N/A,,Mostly Cloudy,130,2013-02-17 05:00:00
5:30 AM,44.6,41.0,87,29.98,6.2,SE,12.7,-,N/A,,Mostly Cloudy,140,2013-02-17 05:30:00
6:00 AM,45,41,79,30.01,16,SE,15.7,,,,Mostly Cloudy,140,2013-02-17 06:00:00
6:00 AM,44.6,41.0,87,29.98,6.2,SE,16.1,-,N/A,,Mostly Cloudy,140,2013-02-17 06:00:00
6:30 AM,44.6,41.0,87,29.98,6.2,SSE,16.1,-,N/A,,Mostly Cloudy,150,2013-02-17 06:30:00
7:00 AM,44.6,41.0,87,29.98,6.2,SE,16.1,-,N/A,,Mostly Cloudy,140,2013-02-17 07:00:00
7:30 AM,44.6,41.0,87,30.01,6.2,SSE,16.1,-,N/A,,Mostly Cloudy,150,2013-02-17 07:30:00
8:00 AM,44.6,41.0,87,30.01,6.2,SSE,15.0,-,N/A,,Mostly Cloudy,150,2013-02-17 08:00:00
8:30 AM,44.6,41.0,87,30.01,6.2,SSE,15.0,-,N/A,,Mostly Cloudy,150,2013-02-17 08:30:00
9:00 AM,44.6,41.0,87,30.01,6.2,SSE,17.3,-,N/A,,Mostly Cloudy,150,2013-02-17 09:00:00
9:30 AM,44.6,41.0,87,30.01,6.2,SSE,17.3,-,N/A,,Mostly Cloudy,150,2013-02-17 09:30:00
10:00 AM,44.6,41.0,87,30.01,6.2,SE,19.6,-,N/A,,Mostly Cloudy,140,2013-02-17 10:00:00
10:30 AM,44.6,41.0,87,30.01,6.2,SSE,18.4,-,N/A,,Mostly Cloudy,150,2013-02-17 10:30:00
11:00 AM,44.6,39.2,81,30.01,6.2,SE,18.4,-,N/A,,Mostly Cloudy,140,2013-02-17 11:00:00
11:30 AM,46.4,39.2,76,30.01,6.2,SSE,17.3,-,N/A,,Mostly Cloudy,150,2013-02-17 11:30:00
12:00 PM,47,39,67,30.01,19,SE,15.7,,,,Mostly Cloudy,140,2013-02-17 12:00:00
12:00 PM,48.2,39.2,71,30.01,6.2,SE,15.0,-,N/A,,Mostly Cloudy,140,2013-02-17 12:00:00
12:30 PM,48.2,39.2,71,29.98,6.2,SE,16.1,-,N/A,,Mostly Cloudy,140,2013-02-17 12:30:00
1:00 PM,48.2,37.4,66,29.98,6.2,SSE,17.3,-,N/A,,Mostly Cloudy,150,2013-02-17 13:00:00
1:30 PM,48.2,39.2,71,29.98,6.2,SE,18.4,-,N/A,,Mostly Cloudy,140,2013-02-17 13:30:00
2:00 PM,46.4,41.0,81,29.98,6.2,SE,18.4,-,N/A,,Scattered Clouds,140,2013-02-17 14:00:00
2:30 PM,44.6,39.2,81,29.98,6.2,SE,19.6,-,N/A,,Scattered Clouds,140,2013-02-17 14:30:00
3:00 PM,44.6,39.2,81,29.98,6.2,SE,18.4,-,N/A,,Mostly Cloudy,140,2013-02-17 15:00:00
3:30 PM,44.6,39.2,81,29.95,6.2,SE,18.4,-,N/A,,Mostly Cloudy,140,2013-02-17 15:30:00
4:00 PM,44.6,39.2,81,29.95,6.2,SE,19.6,-,N/A,,Mostly Cloudy,130,2013-02-17 16:00:00
4:30 PM,44.6,39.2,81,29.95,6.2,SE,21.9,-,N/A,,Mostly Cloudy,140,2013-02-17 16:30:00
5:00 PM,44.6,37.4,76,29.95,6.2,SE,17.3,-,N/A,,Mostly Cloudy,140,2013-02-17 17:00:00
5:30 PM,44.6,37.4,76,29.95,6.2,SSE,15.0,26.5,N/A,,Mostly Cloudy,150,2013-02-17 17:30:00
6:00 PM,44,38,72,29.98,16,SE,15.7,,,,Mostly Cloudy,140,2013-02-17 18:00:00
6:00 PM,44.6,37.4,76,29.95,6.2,SE,13.8,-,N/A,,Mostly Cloudy,140,2013-02-17 18:00:00
6:30 PM,44.6,37.4,76,29.95,6.2,SE,16.1,-,N/A,,Scattered Clouds,130,2013-02-17 18:30:00
7:00 PM,44.6,37.4,76,29.95,6.2,SE,17.3,-,N/A,,Mostly Cloudy,130,2013-02-17 19:00:00
7:30 PM,44.6,35.6,71,29.95,6.2,SE,21.9,-,N/A,,Partly Cloudy,130,2013-02-17 19:30:00
8:00 PM,44.6,35.6,71,29.95,6.2,SE,23.0,-,N/A,,Partly Cloudy,130,2013-02-17 20:00:00
8:30 PM,42.8,35.6,76,29.95,6.2,SE,21.9,-,N/A,,Partly Cloudy,130,2013-02-17 20:30:00
9:00 PM,42.8,37.4,81,29.95,6.2,SE,24.2,-,N/A,,Partly Cloudy,130,2013-02-17 21:00:00
9:30 PM,42.8,37.4,81,29.95,6.2,ESE,21.9,-,N/A,,Partly Cloudy,120,2013-02-17 21:30:00
10:00 PM,42.8,35.6,76,29.95,6.2,SE,18.4,-,N/A,,Partly Cloudy,130,2013-02-17 22:00:00
10:30 PM,42.8,32.0,66,29.95,6.2,SE,26.5,-,N/A,,Partly Cloudy,140,2013-02-17 22:30:00
11:00 PM,42.8,32.0,66,29.98,6.2,SE,21.9,-,N/A,,Partly Cloudy,140,2013-02-17 23:00:00
11:30 PM,42.8,33.8,70,29.98,6.2,SE,20.7,-,N/A,,Partly Cloudy,140,2013-02-17 23:30:00